Regional Weather Roundup
Issued by NWS

Home | Current Version | Previous Version | Text Only | Print | Product List | Glossary On
Versions: 1 2 3 4 5 6 7 8 9 10 11 12 13 14 15 16 17 18 19 20 21 22 23 24 25 26 27 28
000
ASUS42 KKEY 200810
RWRKEY

FLORIDA REGIONAL WEATHER ROUNDUP FOR THE FLORIDA KEYS
NATIONAL WEATHER SERVICE KEY WEST FLORIDA
300 AM EST MON FEB 20 2017

...SOUTH FLORIDA AND THE KEYS...

CITY           SKY/WX    TMP DP  RH WIND       PRES   REMARKS
FORT MYERS     CLEAR     63  62  97 E3        30.06F
SW REGIONAL AP CLEAR     61  59  93 CALM      30.07F FOG
NAPLES         CLEAR     64  64 100 NE6       30.05F
MIAMI          PTCLDY    70  64  81 CALM      30.06S
WEST KENDALL   MOCLDY    67  65  93 N3        30.06S
HOMESTEAD      CLEAR     68  68 100 NE3       30.05S
MARATHON       CLEAR     74  69  85 NE5       30.04F
BOCA CHICA NAS CLEAR     69  68  96 N9        30.06S
KEY WEST INTL    N/A    N/A N/A N/A MISG      30.06S

...INTERNATIONAL WEATHER...

CITY           SKY/WX    TMP DP  RH WIND       PRES   REMARKS
NASSAU BAHAMAS PTCLDY    75  57  53 N5        30.06S
CANCUN MEXICO  PTCLDY    79  73  83 E13       29.98F
COZUMEL MEXICO PTCLDY    79  72  78 SE12      29.95F

ADJACENT COASTAL WATERS...

STATION/POSITION TIME  SKY/WX   TEMP    WIND        PRES    WAVE
                                AIR SEA DIR/SP/G            HT/PER
                 (UTC)          (F)     (DEG/KT/KT) (MB)    (FT/S)
PULASKI SHOAL LI 0800            72      30/  5/  6 1017.7F
SAND KEY         0750            74      20/  4/  6 1018.2F
LONG KEY         0700            75 77   40/  9/ 10 1017.9F
MOLASSES REEF    NOT AVBL
FOWEY ROCKS      0800            75 76   50/ 13/ 14 1018.2F
Buoy 42097       0800                                 N/A     2/ 7

$$




USA.gov is the U.S. government's official web portal to all federal, state and local government web resources and services.